EWG011 LKPR-EBBR

Flight info

Callsign EWG011
Flight time 1h 3m
Altitude 34000
Route BALTU DCT DONAD DCT RAPET Z93 KODUK DCT MARZA DCT TEKTU DCT TESGA DCT UMUPU T880 ADMUM/N0366F240 T880 BATTY
Aircraft A320/M-SDE3FGHIRWY/LB1

Departure

Time 2026-05-07 18:57
Airport Václav Havel Airport Prague (LKPR)

Arrival

Time 2026-05-07 20:00
Airport Brussels Airport (EBBR)
Time Latitude Longitude Altitude Speed Heading
2026-05-07 18:20 50.10689 14.26369 1173 ft 0 kts 214°
2026-05-07 18:42 50.10693 14.26373 1173 ft 3 kts 214°
2026-05-07 18:42 50.10715 14.26396 1172 ft 4 kts 214°
2026-05-07 18:43 50.10732 14.26414 1172 ft 4 kts 235°
2026-05-07 18:43 50.10735 14.26439 1172 ft 1 kts 302°
2026-05-07 18:43 50.10741 14.26419 1172 ft 4 kts 287°
2026-05-07 18:43 50.10731 14.26412 1172 ft 1 kts 214°
2026-05-07 18:44 50.10740 14.26418 1172 ft 4 kts 275°
2026-05-07 18:44 50.10731 14.26448 1172 ft 4 kts 302°
2026-05-07 18:44 50.10724 14.26466 1174 ft 0 kts 303°
2026-05-07 18:47 50.10731 14.26447 1172 ft 6 kts 303°
2026-05-07 18:47 50.10770 14.26358 1173 ft 11 kts 304°
2026-05-07 18:47 50.10797 14.26257 1177 ft 9 kts 253°
2026-05-07 18:48 50.10727 14.26174 1176 ft 18 kts 215°
2026-05-07 18:48 50.10630 14.26070 1174 ft 15 kts 212°
2026-05-07 18:48 50.10594 14.26062 1177 ft 0 kts 144°
2026-05-07 18:48 50.10592 14.26062 1177 ft 1 kts 159°
2026-05-07 18:49 50.10567 14.26020 1176 ft 6 kts 227°
2026-05-07 18:49 50.10525 14.25976 1183 ft 10 kts 191°
2026-05-07 18:49 50.10465 14.26050 1185 ft 15 kts 128°
2026-05-07 18:49 50.10391 14.26205 1188 ft 20 kts 128°
2026-05-07 18:50 50.10316 14.26357 1191 ft 17 kts 127°
2026-05-07 18:50 50.10239 14.26518 1195 ft 16 kts 127°
2026-05-07 18:50 50.10187 14.26626 1197 ft 9 kts 127°
2026-05-07 18:50 50.10152 14.26697 1197 ft 9 kts 127°
2026-05-07 18:51 50.10096 14.26815 1200 ft 19 kts 126°
2026-05-07 18:51 50.09995 14.27022 1204 ft 27 kts 127°
2026-05-07 18:51 50.09887 14.27244 1206 ft 25 kts 127°
2026-05-07 18:51 50.09781 14.27428 1206 ft 20 kts 135°
2026-05-07 18:52 50.09662 14.27609 1207 ft 29 kts 136°
2026-05-07 18:52 50.09506 14.27847 1213 ft 30 kts 135°
2026-05-07 18:52 50.09369 14.28056 1220 ft 25 kts 135°
2026-05-07 18:52 50.09269 14.28213 1225 ft 16 kts 135°
2026-05-07 18:53 50.09203 14.28294 1229 ft 8 kts 160°
2026-05-07 18:53 50.09171 14.28295 1232 ft 8 kts 192°
2026-05-07 18:53 50.09113 14.28229 1244 ft 8 kts 221°
2026-05-07 18:53 50.09084 14.28139 1238 ft 10 kts 256°
2026-05-07 18:54 50.09104 14.28052 1233 ft 0 kts 307°
2026-05-07 18:56 50.09104 14.28051 1233 ft 1 kts 307°
2026-05-07 18:56 50.09169 14.27919 1232 ft 45 kts 307°
2026-05-07 18:56 50.09494 14.27247 1214 ft 109 kts 307°
2026-05-07 18:57 50.10055 14.26085 1222 ft 157 kts 309°
2026-05-07 18:57 50.10708 14.24721 1894 ft 157 kts 307°
2026-05-07 18:57 50.11362 14.23346 2671 ft 160 kts 308°
2026-05-07 18:57 50.12076 14.21859 3058 ft 182 kts 309°
2026-05-07 18:58 50.12889 14.20187 3385 ft 205 kts 309°
2026-05-07 18:58 50.13793 14.18330 3730 ft 227 kts 308°
2026-05-07 18:58 50.14793 14.16265 4211 ft 249 kts 307°
2026-05-07 18:58 50.15848 14.14078 5085 ft 255 kts 306°
2026-05-07 18:59 50.16560 14.12596 5642 ft 260 kts 306°
2026-05-07 18:59 50.17640 14.10313 6557 ft 263 kts 301°
2026-05-07 18:59 50.18310 14.07674 7423 ft 265 kts 278°
2026-05-07 18:59 50.18412 14.04764 8253 ft 271 kts 271°
2026-05-07 19:00 50.18445 14.01790 9076 ft 276 kts 270°
2026-05-07 19:00 50.18468 13.98773 9948 ft 280 kts 270°
2026-05-07 19:00 50.18492 13.95666 10447 ft 297 kts 270°
2026-05-07 19:00 50.18519 13.92326 10802 ft 316 kts 270°
2026-05-07 19:01 50.18549 13.88873 11541 ft 322 kts 270°
2026-05-07 19:01 50.18580 13.85353 12306 ft 326 kts 270°
2026-05-07 19:01 50.18599 13.81782 13047 ft 331 kts 270°
2026-05-07 19:01 50.18609 13.78170 13794 ft 335 kts 270°
2026-05-07 19:02 50.18611 13.74507 14448 ft 340 kts 270°
2026-05-07 19:02 50.18612 13.70815 15139 ft 342 kts 270°
2026-05-07 19:02 50.18614 13.67089 15815 ft 345 kts 270°
2026-05-07 19:02 50.18616 13.63330 16502 ft 347 kts 270°
2026-05-07 19:03 50.18617 13.59554 17192 ft 350 kts 270°
2026-05-07 19:03 50.18616 13.55743 17880 ft 352 kts 270°
2026-05-07 19:03 50.18615 13.51900 18523 ft 355 kts 270°
2026-05-07 19:03 50.18614 13.48032 19097 ft 358 kts 270°
2026-05-07 19:04 50.18612 13.44140 19664 ft 361 kts 271°
2026-05-07 19:04 50.18609 13.40208 20227 ft 363 kts 271°
2026-05-07 19:04 50.18605 13.36253 20787 ft 366 kts 271°
2026-05-07 19:04 50.18597 13.32268 21334 ft 369 kts 271°
2026-05-07 19:05 50.18586 13.28253 21873 ft 372 kts 271°
2026-05-07 19:05 50.18573 13.24204 22396 ft 374 kts 271°
2026-05-07 19:05 50.18562 13.20123 22916 ft 377 kts 271°
2026-05-07 19:05 50.18549 13.16016 23433 ft 380 kts 271°
2026-05-07 19:06 50.18537 13.11876 23872 ft 383 kts 271°
2026-05-07 19:06 50.18511 13.03571 24725 ft 388 kts 271°
2026-05-07 19:06 50.18492 12.99356 25136 ft 391 kts 271°
2026-05-07 19:07 50.18469 12.95102 25541 ft 393 kts 271°
2026-05-07 19:07 50.18444 12.90820 25928 ft 395 kts 271°
2026-05-07 19:07 50.18417 12.86519 26340 ft 398 kts 271°
2026-05-07 19:07 50.18391 12.82190 26731 ft 400 kts 271°
2026-05-07 19:08 50.18366 12.77839 27129 ft 402 kts 271°
2026-05-07 19:08 50.18340 12.73461 27522 ft 404 kts 271°
2026-05-07 19:08 50.18311 12.69059 27909 ft 407 kts 271°
2026-05-07 19:08 50.18279 12.64634 28304 ft 408 kts 271°
2026-05-07 19:09 50.18244 12.60199 28704 ft 410 kts 271°
2026-05-07 19:09 50.18208 12.55747 29083 ft 412 kts 271°
2026-05-07 19:09 50.18166 12.51271 29448 ft 414 kts 270°
2026-05-07 19:09 50.18122 12.46770 29792 ft 416 kts 270°
2026-05-07 19:10 50.18078 12.42243 30091 ft 420 kts 271°
2026-05-07 19:10 50.18034 12.37676 30354 ft 422 kts 270°
2026-05-07 19:10 50.17988 12.33087 30629 ft 425 kts 270°
2026-05-07 19:10 50.17937 12.28470 30898 ft 427 kts 270°
2026-05-07 19:11 50.17883 12.23812 31159 ft 429 kts 270°
2026-05-07 19:11 50.17829 12.19152 31417 ft 431 kts 270°
2026-05-07 19:11 50.17774 12.14470 31708 ft 432 kts 270°
2026-05-07 19:11 50.17716 12.09794 32078 ft 431 kts 269°
2026-05-07 19:12 50.17657 12.05127 32438 ft 430 kts 269°
2026-05-07 19:12 50.17596 12.00518 32796 ft 430 kts 269°
2026-05-07 19:12 50.17530 11.95789 33143 ft 430 kts 269°
2026-05-07 19:12 50.17466 11.91189 33474 ft 430 kts 269°
2026-05-07 19:13 50.17401 11.86522 33841 ft 430 kts 269°
2026-05-07 19:13 50.17335 11.81800 34032 ft 429 kts 269°
2026-05-07 19:13 50.17194 11.72735 34059 ft 416 kts 269°
2026-05-07 19:14 50.17052 11.63745 34061 ft 414 kts 269°
2026-05-07 19:14 50.16898 11.54715 34064 ft 414 kts 269°
2026-05-07 19:15 50.16741 11.45802 34068 ft 414 kts 269°
2026-05-07 19:15 50.16573 11.36823 34071 ft 414 kts 268°
2026-05-07 19:16 50.16403 11.27853 34075 ft 414 kts 268°
2026-05-07 19:16 50.16226 11.18878 34074 ft 414 kts 268°
2026-05-07 19:17 50.16042 11.09911 34074 ft 414 kts 268°
2026-05-07 19:17 50.15847 11.00942 34067 ft 414 kts 268°
2026-05-07 19:18 50.15648 10.91966 34067 ft 414 kts 268°
2026-05-07 19:18 50.15444 10.82999 34076 ft 414 kts 268°
2026-05-07 19:19 50.15236 10.74022 34074 ft 414 kts 268°
2026-05-07 19:19 50.15018 10.65072 34087 ft 413 kts 268°
2026-05-07 19:20 50.14785 10.56114 34083 ft 413 kts 268°
2026-05-07 19:20 50.14552 10.47168 34087 ft 413 kts 268°
2026-05-07 19:21 50.14306 10.38229 34085 ft 413 kts 268°
2026-05-07 19:21 50.14118 10.29292 34091 ft 412 kts 273°
2026-05-07 19:22 50.15214 10.20560 34087 ft 412 kts 286°
2026-05-07 19:22 50.16787 10.12032 34078 ft 412 kts 286°
2026-05-07 19:23 50.18353 10.03437 34080 ft 412 kts 285°
2026-05-07 19:23 50.19909 9.94843 34080 ft 412 kts 285°
2026-05-07 19:24 50.21466 9.86237 34083 ft 412 kts 285°
2026-05-07 19:24 50.23014 9.77630 34081 ft 412 kts 285°
2026-05-07 19:25 50.24558 9.69008 34093 ft 412 kts 285°
2026-05-07 19:25 50.26096 9.60389 34085 ft 412 kts 285°
2026-05-07 19:26 50.27620 9.51767 34081 ft 412 kts 285°
2026-05-07 19:26 50.29154 9.43029 34086 ft 424 kts 285°
2026-05-07 19:27 50.30739 9.33959 34082 ft 440 kts 285°
2026-05-07 19:27 50.32369 9.24651 34083 ft 445 kts 285°
2026-05-07 19:28 50.33990 9.15312 34087 ft 444 kts 285°
2026-05-07 19:28 50.35702 9.06020 34087 ft 444 kts 287°
2026-05-07 19:29 50.37580 8.96805 34084 ft 444 kts 288°
2026-05-07 19:29 50.39450 8.87660 34084 ft 444 kts 287°
2026-05-07 19:30 50.41278 8.78410 34084 ft 444 kts 287°
2026-05-07 19:30 50.43077 8.69155 34090 ft 444 kts 287°
2026-05-07 19:31 50.44701 8.59818 34087 ft 444 kts 279°
2026-05-07 19:31 50.45659 8.50254 34082 ft 444 kts 279°
2026-05-07 19:32 50.46140 8.45464 33766 ft 444 kts 279°
2026-05-07 19:32 50.46615 8.40667 33350 ft 444 kts 279°
2026-05-07 19:32 50.47086 8.35881 32936 ft 445 kts 279°
2026-05-07 19:32 50.47558 8.31079 32535 ft 446 kts 279°
2026-05-07 19:33 50.48032 8.26266 32141 ft 446 kts 279°
2026-05-07 19:33 50.48505 8.21440 31750 ft 447 kts 279°
2026-05-07 19:33 50.48981 8.16602 31361 ft 448 kts 279°
2026-05-07 19:33 50.49453 8.11773 30979 ft 449 kts 279°
2026-05-07 19:34 50.49924 8.06912 30608 ft 450 kts 278°
2026-05-07 19:34 50.50390 8.02041 30236 ft 451 kts 278°
2026-05-07 19:34 50.50852 7.97170 29813 ft 452 kts 278°
2026-05-07 19:34 50.51313 7.92272 29381 ft 453 kts 278°
2026-05-07 19:35 50.51773 7.87376 28951 ft 452 kts 278°
2026-05-07 19:35 50.52231 7.82508 28542 ft 450 kts 278°
2026-05-07 19:35 50.52685 7.77654 28121 ft 447 kts 278°
2026-05-07 19:35 50.53135 7.72837 27715 ft 444 kts 278°
2026-05-07 19:36 50.53580 7.68050 27315 ft 442 kts 278°
2026-05-07 19:36 50.54020 7.63291 26919 ft 439 kts 277°
2026-05-07 19:36 50.54456 7.58548 26526 ft 437 kts 277°
2026-05-07 19:36 50.54886 7.53836 26142 ft 434 kts 277°
2026-05-07 19:37 50.55314 7.49146 25758 ft 432 kts 277°
2026-05-07 19:37 50.55733 7.44487 25389 ft 429 kts 276°
2026-05-07 19:37 50.55889 7.39819 25021 ft 427 kts 270°
2026-05-07 19:37 50.55922 7.35222 24660 ft 425 kts 270°
2026-05-07 19:38 50.55959 7.30590 24301 ft 423 kts 270°
2026-05-07 19:38 50.55995 7.25984 23944 ft 421 kts 270°
2026-05-07 19:38 50.56028 7.21393 23586 ft 419 kts 270°
2026-05-07 19:38 50.56055 7.16826 23161 ft 416 kts 269°
2026-05-07 19:39 50.56027 7.12287 22751 ft 414 kts 268°
2026-05-07 19:39 50.55941 7.07766 22342 ft 412 kts 267°
2026-05-07 19:39 50.55820 7.03281 22058 ft 410 kts 267°
2026-05-07 19:39 50.55734 7.00326 22052 ft 409 kts 267°
2026-05-07 19:40 50.55564 6.94335 22076 ft 410 kts 267°
2026-05-07 19:40 50.55444 6.89848 22076 ft 411 kts 267°
2026-05-07 19:40 50.55331 6.85362 22076 ft 411 kts 268°
2026-05-07 19:40 50.55222 6.80866 22077 ft 414 kts 268°
2026-05-07 19:41 50.55111 6.76262 22076 ft 428 kts 268°
2026-05-07 19:41 50.54999 6.71546 22076 ft 435 kts 268°
2026-05-07 19:41 50.55218 6.66802 22081 ft 437 kts 279°
2026-05-07 19:41 50.55786 6.62102 22085 ft 437 kts 280°
2026-05-07 19:42 50.56360 6.57403 22085 ft 437 kts 280°
2026-05-07 19:42 50.56933 6.52708 22081 ft 438 kts 280°
2026-05-07 19:42 50.57503 6.48015 22085 ft 437 kts 280°
2026-05-07 19:42 50.58070 6.43321 22083 ft 437 kts 280°
2026-05-07 19:43 50.58832 6.38693 22079 ft 438 kts 289°
2026-05-07 19:43 50.59895 6.34203 22081 ft 438 kts 289°
2026-05-07 19:43 50.60963 6.29705 21867 ft 439 kts 289°
2026-05-07 19:43 50.62021 6.25239 21214 ft 433 kts 289°
2026-05-07 19:44 50.63065 6.20808 20574 ft 429 kts 289°
2026-05-07 19:44 50.64081 6.16477 19953 ft 426 kts 289°
2026-05-07 19:44 50.65101 6.12119 19334 ft 422 kts 289°
2026-05-07 19:44 50.66114 6.07788 18732 ft 419 kts 289°
2026-05-07 19:45 50.67118 6.03492 18115 ft 416 kts 289°
2026-05-07 19:45 50.68109 5.99242 17440 ft 411 kts 289°
2026-05-07 19:45 50.69071 5.95101 16771 ft 392 kts 289°
2026-05-07 19:45 50.69984 5.91166 16124 ft 373 kts 289°
2026-05-07 19:46 50.70858 5.87396 15497 ft 359 kts 289°
2026-05-07 19:46 50.71698 5.83756 14884 ft 350 kts 289°
2026-05-07 19:46 50.72522 5.80176 14269 ft 343 kts 288°
2026-05-07 19:46 50.73327 5.76683 13649 ft 338 kts 288°
2026-05-07 19:47 50.74133 5.73186 12984 ft 340 kts 289°
2026-05-07 19:47 50.74671 5.70852 12548 ft 342 kts 289°
2026-05-07 19:47 50.75482 5.67323 11903 ft 343 kts 289°
2026-05-07 19:47 50.76296 5.63771 11271 ft 344 kts 289°
2026-05-07 19:48 50.77104 5.60228 10649 ft 341 kts 289°
2026-05-07 19:48 50.77893 5.56769 10037 ft 328 kts 289°
2026-05-07 19:48 50.78650 5.53441 9373 ft 319 kts 289°
2026-05-07 19:48 50.79395 5.50170 8795 ft 316 kts 289°
2026-05-07 19:49 50.80135 5.46913 8442 ft 313 kts 289°
2026-05-07 19:49 50.80868 5.43678 8138 ft 311 kts 289°
2026-05-07 19:49 50.81595 5.40466 7826 ft 310 kts 289°
2026-05-07 19:49 50.82319 5.37258 7521 ft 309 kts 289°
2026-05-07 19:50 50.83039 5.34071 7218 ft 308 kts 289°
2026-05-07 19:50 50.83752 5.30886 6922 ft 306 kts 289°
2026-05-07 19:50 50.84456 5.27712 6623 ft 305 kts 289°
2026-05-07 19:50 50.85156 5.24555 6324 ft 304 kts 289°
2026-05-07 19:51 50.85852 5.21401 6089 ft 303 kts 289°
2026-05-07 19:51 50.86546 5.18243 6084 ft 304 kts 289°
2026-05-07 19:51 50.87238 5.15085 6088 ft 304 kts 289°
2026-05-07 19:51 50.87978 5.11943 6007 ft 305 kts 292°
2026-05-07 19:52 50.88728 5.09114 5767 ft 301 kts 293°
2026-05-07 19:52 50.89531 5.06113 5504 ft 290 kts 293°
2026-05-07 19:52 50.90296 5.03239 5252 ft 274 kts 293°
2026-05-07 19:52 50.91014 5.00530 4994 ft 262 kts 293°
2026-05-07 19:53 50.91706 4.97899 4725 ft 255 kts 293°
2026-05-07 19:53 50.92378 4.95331 4466 ft 248 kts 293°
2026-05-07 19:53 50.93018 4.92884 4206 ft 234 kts 293°
2026-05-07 19:53 50.93668 4.90614 4036 ft 218 kts 305°
2026-05-07 19:54 50.94774 4.89145 4010 ft 202 kts 336°
2026-05-07 19:54 50.95962 4.88067 4008 ft 195 kts 315°
2026-05-07 19:54 50.96711 4.86295 4013 ft 195 kts 292°
2026-05-07 19:54 50.96975 4.84199 4029 ft 194 kts 269°
2026-05-07 19:55 50.96722 4.82172 4010 ft 181 kts 249°
2026-05-07 19:55 50.96305 4.80348 3867 ft 175 kts 249°
2026-05-07 19:55 50.95895 4.78548 3640 ft 173 kts 249°
2026-05-07 19:55 50.95489 4.76764 3435 ft 172 kts 249°
2026-05-07 19:56 50.95083 4.74983 3195 ft 171 kts 249°
2026-05-07 19:56 50.94678 4.73207 2962 ft 171 kts 250°
2026-05-07 19:56 50.94274 4.71439 2732 ft 170 kts 250°
2026-05-07 19:56 50.93877 4.69701 2532 ft 167 kts 250°
2026-05-07 19:57 50.93473 4.67934 2272 ft 168 kts 249°
2026-05-07 19:57 50.93095 4.66279 2040 ft 155 kts 249°
2026-05-07 19:57 50.92737 4.64717 1835 ft 147 kts 249°
2026-05-07 19:57 50.92393 4.63213 1645 ft 145 kts 249°
2026-05-07 19:58 50.92051 4.61721 1446 ft 143 kts 250°
2026-05-07 19:58 50.91711 4.60242 1253 ft 143 kts 250°
2026-05-07 19:58 50.91372 4.58764 1057 ft 142 kts 250°
2026-05-07 19:58 50.91035 4.57299 859 ft 142 kts 250°
2026-05-07 19:59 50.90700 4.55839 686 ft 141 kts 250°
2026-05-07 19:59 50.90367 4.54388 477 ft 142 kts 250°
2026-05-07 19:59 50.90039 4.52954 309 ft 141 kts 251°
2026-05-07 19:59 50.89712 4.51525 174 ft 128 kts 245°
2026-05-07 20:00 50.89464 4.50463 176 ft 77 kts 249°
2026-05-07 20:00 50.89314 4.49810 177 ft 46 kts 250°
2026-05-07 20:00 50.89224 4.49387 176 ft 20 kts 264°
2026-05-07 20:00 50.89279 4.49215 171 ft 11 kts 309°
2026-05-07 20:01 50.89303 4.49172 169 ft 6 kts 310°
2026-05-07 20:01 50.89337 4.49113 167 ft 8 kts 323°
2026-05-07 20:01 50.89396 4.49117 165 ft 5 kts 14°
2026-05-07 20:01 50.89435 4.49132 163 ft 7 kts 14°
2026-05-07 20:02 50.89460 4.49142 162 ft 3 kts 15°
2026-05-07 20:02 50.89487 4.49154 161 ft 6 kts 15°
2026-05-07 20:02 50.89557 4.49180 157 ft 13 kts
2026-05-07 20:02 50.89664 4.49155 151 ft 18 kts
2026-05-07 20:03 50.89807 4.49209 143 ft 24 kts 14°
2026-05-07 20:03 50.89991 4.49285 133 ft 30 kts 15°
2026-05-07 20:03 50.90157 4.49353 128 ft 20 kts 14°
2026-05-07 20:03 50.90283 4.49402 126 ft 17 kts
2026-05-07 20:04 50.90391 4.49321 124 ft 13 kts 333°
2026-05-07 20:04 50.90476 4.49258 120 ft 14 kts 336°
2026-05-07 20:04 50.90507 4.49235 122 ft 2 kts 335°
2026-05-07 20:04 50.90521 4.49224 120 ft 3 kts 335°
2026-05-07 20:05 50.90532 4.49217 119 ft 0 kts 335°
2026-05-07 20:05 50.90541 4.49211 123 ft 6 kts 336°
2026-05-07 20:06 50.90606 4.49164 120 ft 14 kts 335°
2026-05-07 20:06 50.90633 4.49031 117 ft 16 kts 245°
2026-05-07 20:06 50.90591 4.48887 118 ft 14 kts 245°
2026-05-07 20:06 50.90548 4.48741 118 ft 16 kts 245°
2026-05-07 20:07 50.90501 4.48575 117 ft 17 kts 246°
2026-05-07 20:07 50.90467 4.48458 118 ft 10 kts 242°
2026-05-07 20:07 50.90415 4.48452 119 ft 7 kts 154°
2026-05-07 20:07 50.90398 4.48465 119 ft 1 kts 154°
2026-05-07 20:08 50.90391 4.48471 118 ft 2 kts 154°
2026-05-07 20:08 50.90381 4.48478 119 ft 0 kts 155°